EW0844 Weather Reports


time (UTC)temp
C
wind
direction
speed
KPH
gust
KPH
rain 1hr
cm
rain 24hr
cm
rain mn
cm
humidity
%
barometer
mb
20260506221912 10 177 6.4 12.9 0.00 0.13 0.00 79 1010.0
20260506214912 10 242 4.8 11.3 0.00 0.13 0.13 79 1009.8
20260506213412 10 242 9.7 17.7 0.00 0.13 0.13 79 1009.8
20260506211912 10 225 6.4 14.5 0.00 0.13 0.13 79 1009.8
20260506210412 10 223 6.4 12.9 0.00 0.13 0.13 80 1009.6
20260506204912 10 243 6.4 12.9 0.00 0.13 0.13 80 1009.5
20260506203410 10 232 6.4 12.9 0.03 0.13 0.13 80 1009.4
20260506201912 10 263 9.7 19.3 0.03 0.13 0.13 81 1009.1
20260506200412 10 257 8.0 14.5 0.05 0.13 0.13 81 1009.3
20260506194912 10 230 8.0 16.1 0.08 0.13 0.13 82 1009.2
20260506193412 10 223 6.4 16.1 0.08 0.10 0.10 82 1009.0
20260506191912 11 220 8.0 24.1 0.10 0.10 0.10 81 1008.8
20260506190412 11 189 8.0 17.7 0.08 0.08 0.08 81 1008.5
20260506184913 12 359 8.0 17.7 0.05 0.05 0.05 80 1007.9
20260506183412 12 321 3.2 17.7 0.03 0.03 0.03 81 1007.6
20260506181912 13 212 4.8 11.3 0.00 0.00 0.00 78 1007.0
20260506180412 13 244 8.0 17.7 0.00 0.00 0.00 73 1006.7
20260506173412 14 218 4.8 9.7 0.00 0.00 0.00 68 1005.9
20260506171912 14 258 4.8 11.3 0.00 0.00 0.00 68 1005.6
20260506170413 13 158 4.8 14.5 0.00 0.00 0.00 68 1005.2
20260506164910 13 250 8.0 19.3 0.00 0.00 0.00 70 1004.4
20260506161912 14 292 12.9 29.0 0.00 0.00 0.00 70 1004.0
20260506160413 14 308 19.3 33.8 0.00 0.00 0.00 71 1003.7
20260506154913 17 309 19.3 30.6 0.00 0.00 0.00 58 1003.8
20260506153412 20 233 1.6 9.7 0.00 0.00 0.00 48 1002.2
20260506151912 21 65 8.0 14.5 0.00 0.00 0.00 46 1001.5
20260506150412 20 1 6.4 9.7 0.00 0.00 0.00 49 1001.9
20260506144912 20 64 4.8 11.3 0.00 0.00 0.00 49 1001.9
20260506143412 21 66 9.7 14.5 0.00 0.00 0.00 48 1002.2
20260506141913 21 83 9.7 19.3 0.00 0.00 0.00 45 1002.0
20260506140413 21 83 9.7 14.5 0.00 0.00 0.00 46 1002.3
20260506134912 21 100 6.4 14.5 0.00 0.00 0.00 45 1002.6
20260506133412 21 5 6.4 16.1 0.00 0.00 0.00 47 1002.7
20260506131913 21 36 11.3 17.7 0.00 0.00 0.00 48 1002.9
20260506130415 21 344 6.4 11.3 0.00 0.00 0.00 47 1003.1
20260506123414 21 76 4.8 12.9 0.00 0.00 0.00 49 1003.3
20260506121914 20 218 8.0 14.5 0.00 0.00 0.00 50 1003.6
20260506120414 20 50 6.4 17.7 0.00 0.00 0.00 52 1003.8
20260506114917 19 5 8.0 17.7 0.00 0.00 0.00 51 1003.9
20260506113414 19 263 8.0 16.1 0.00 0.00 0.00 53 1004.1
20260506111914 18 45 14.5 17.7 0.00 0.00 0.00 55 1004.2
20260506110413 18 53 6.4 17.7 0.00 0.00 0.00 56 1004.6
20260506104914 18 50 9.7 14.5 0.00 0.00 0.00 55 1005.1
20260506103413 18 86 11.3 14.5 0.00 0.00 0.00 55 1005.2
20260506101913 18 64 6.4 14.5 0.00 0.00 0.00 55 1005.2
20260506100414 18 126 11.3 19.3 0.00 0.00 0.00 55 1005.4
20260506094913 18 22 12.9 20.9 0.00 0.00 0.00 54 1005.5
20260506093414 18 71 9.7 20.9 0.00 0.00 0.00 54 1005.6
20260506091914 18 282 3.2 12.9 0.00 0.00 0.00 52 1005.4
20260506090412 18 105 9.7 20.9 0.00 0.00 0.00 54 1005.3
20260506084912 18 82 4.8 14.5 0.00 0.00 0.00 54 1005.5
20260506083413 18 54 6.4 12.9 0.00 0.00 0.00 54 1005.7
20260506081913 17 100 3.2 16.1 0.00 0.00 0.00 53 1005.8
20260506080412 17 107 3.2 8.0 0.00 0.00 0.00 54 1006.0
20260506071911 16 50 8.0 12.9 0.00 0.00 0.00 56 1006.4
20260506070411 15 63 1.6 12.9 0.00 0.00 0.00 60 1006.4
20260506061911 13 107 1.6 3.2 0.00 0.00 0.00 72 1006.7
20260506060412 12 116 1.6 3.2 0.00 0.00 0.00 73 1006.6
20260506044910 10 101 3.2 6.4 0.00 0.00 0.00 81 1007.0
20260506043412 10 109 3.2 4.8 0.00 0.00 0.00 83 1007.2
20260506040411 9 134 1.6 3.2 0.00 0.00 0.00 82 1007.1
20260506034911 9 88 1.6 4.8 0.00 0.00 0.00 82 1007.2
20260506033412 9 116 1.6 3.2 0.00 0.00 0.00 82 1007.6
20260506031911 9 62 1.6 3.2 0.00 0.00 0.00 83 1007.8
20260506030412 9 128 1.6 4.8 0.00 0.00 0.00 83 1007.7
20260506024912 9 50 1.6 4.8 0.00 0.00 0.00 82 1008.0
20260506023411 10 88 3.2 3.2 0.00 0.00 0.00 82 1007.9
20260506021911 10 112 1.6 3.2 0.00 0.00 0.00 81 1007.6
20260506014913 11 100 1.6 3.2 0.00 0.00 0.00 80 1007.9
20260506013413 11 268 0.0 1.6 0.00 0.00 0.00 80 1008.2
20260506011912 11 116 1.6 3.2 0.00 0.00 0.00 79 1007.9
20260506010414 12 268 1.6 3.2 0.00 0.00 0.00 78 1007.9
20260506001912 12 217 3.2 4.8 0.00 0.00 0.00 79 1008.2
20260506000413 12 177 1.6 3.2 0.00 0.00 0.00 79 1008.2
20260505234912 12 222 1.6 3.2 0.00 0.00 0.00 79 1008.1
20260505233414 12 359 1.6 4.8 0.00 0.00 0.00 78 1008.3
20260505231914 12 249 3.2 9.7 0.00 0.00 0.00 77 1008.5
20260505230413 13 178 3.2 12.9 0.00 0.00 0.00 75 1008.4
20260505224913 13 251 4.8 11.3 0.00 0.00 0.00 74 1008.5
20260505223414 13 257 8.0 16.1 0.00 0.00 0.00 73 1008.7